Regional Weather Roundup
Issued by NWS

Home | Current Version | Previous Version | Text Only | Print | Product List | Glossary On
Versions: 1 2 3 4 5 6 7 8 9 10 11 12 13 14 15 16 17 18 19 20 21 22 23 24 25 26 27 28 29 30 31 32 33 34 35 36 37 38 39 40 41 42 43 44 45 46 47 48 49 50
000
ASUS43 KTOP 091459
RWRKS

WEATHER ROUNDUP FOR KANSAS
NATIONAL WEATHER SERVICE GOODLAND KS
900 AM CST TUE FEB 09 2016

NOTE:  "FAIR" INDICATES FEW OR NO CLOUDS BELOW 12,000 FEET WITH NO
SIGNIFICANT WEATHER AND/OR OBSTRUCTIONS TO VISIBILITY.

KSZ001>006-013>018-027>032-041>047-091600-
NORTHWEST KANSAS

CITY           SKY/WX    TMP DP  RH WIND       PRES   REMARKS
GOODLAND       HAZE      31  24  75 N10       30.26R VSB 1   WCI  22
HAYS           CLOUDY    32  16  51 NW7       30.27R
HILL CITY      CLOUDY    31  20  63 NW5       30.28R
RUSSELL        CLOUDY    32  20  61 N12       30.25R WCI  23
$$

KSZ061>065-074>080-084>089-091600-
SOUTHWEST KANSAS

CITY           SKY/WX    TMP DP  RH WIND       PRES   REMARKS
DODGE CITY     SUNNY     32  24  72 N7        30.28R
ELKHART          N/A     37  23  56 W10         N/A  WCI  30
GARDEN CITY    PTSUNNY   35  27  72 NW14      30.26R WCI  26
GREAT BEND     CLOUDY    30  19  64 N7        30.27R
LIBERAL        SUNNY     39  28  65 W16       30.27S WCI  30
$$

KSZ066>073-081>083-090>101-091600-
SOUTHEAST KANSAS

CITY           SKY/WX    TMP DP  RH WIND       PRES   REMARKS
CHANUTE        SUNNY     31  14  49 NW21G30   30.18R WCI  18
COFFEYVILLE    SUNNY     33  20  58 NW13      30.20R WCI  24
HUTCHINSON     CLOUDY    34  17  50 N18G28    30.24R WCI  23
MEDICINE LODGE   N/A     35  23  61 NW8       30.27R
NEWTON         CLOUDY    30  16  55 N21G33    30.23S WCI  17
PARSONS        SUNNY     32  13  45 N22G31    30.19R WCI  19
WICHITA INTL   PTSUNNY   35  19  52 N18       30.23R WCI  24
WICHITA JABRA  CLOUDY    32  20  61 N20G29    30.23R WCI  20
WINFIELD       CLOUDY    34  22  61 NW12      30.25R WCI  25
$$

KSZ007>012-019>026-033>040-048>060-102>105-091600-
NORTHEAST KANSAS

CITY           SKY/WX    TMP DP  RH WIND       PRES   REMARKS
CONCORDIA      PTSUNNY   26  10  50 N17G29    30.26R WCI  13
EMPORIA        SUNNY     28  13  53 N18G28    30.19R WCI  15
LAWRENCE       SUNNY     22  10  60 N16       30.19R WCI   8
MANHATTAN      SUNNY     27   6  41 N12G23    30.25R WCI  17
OLATHE IND     SUNNY     20  10  65 N18       30.17R WCI   5
OLATHE EXE     SUNNY     19   7  59 N21G30    30.16R WCI   3
SALINA         CLOUDY    31  16  54 N22       30.27R WCI  18
TOPEKA BILLARD SUNNY     26   9  48 NW21      30.20R WCI  12
TOPEKA FORBES  SUNNY     26   7  44 N26G37    30.17R WCI  10
$$



USA.gov is the U.S. government's official web portal to all federal, state and local government web resources and services.